Home > Weather > Sanandaj > Past weeks

Flag for Iran Past Weather in Sanandaj, Iran — Yesterday and Last 2 Weeks

Now
54 °F

Clear.


Feels Like: 54 °F
Forecast: 47 / 75 °F
Wind: 2 mph from North

Location: Sanandaj Airport

Current Time: May 29, 2016 at 4:37:11 AM

Latest Report: May 29, 2016 at 3:22 AM


Visibility: 4 mi

Pressure: 29.95 "Hg (25.02 "Hg at 1502m altitude)

Humidity: 58%

Dew Point: 39 °F

Location of SanandajLocation

Past Weather in Sanandaj — Graph

°F

Sanandaj Temperature Yesterday

Maximum temperature yesterday: 90 °F (at 2:30 PM)
Minimum temperature yesterday: 50 °F (at 6:30 AM)
Average temperature yesterday: 72 °F

High & Low Weather Summary for the Past Weeks

 TemperatureHumidityPressure
High90 °F (May 18, 2:30 PM)100% (May 26, 6:30 AM)30.18 "Hg (May 26, 6:30 AM)
Low43 °F (May 21, 6:24 AM)9% (May 28, 2:30 PM)29.80 "Hg (May 24, 3:30 PM)
Average68 °F42%29.99 "Hg
* Reported May 14 3:21 AM — May 29 3:22 AM, Sanandaj, Weather by CustomWeather, © 2016

Note: Actual official high and low records may vary slightly from our data, if they occured in-between our weather recording intervals... More about our weather records

Advertising

Sanandaj Weather History for the Previous 24 Hours

Scroll right to see more
 ConditionsComfort  
Time TempWeatherWind HumidityBarometerVisibility
3:22 AM
Sun, May 29
54 °FClear.2 mph58%29.95 "Hg4 mi
2:22 AM57 °FClear.2 mph55%29.95 "Hg4 mi
1:22 AM59 °FClear.No wind51%29.95 "Hg4 mi
12:25 AM64 °FClear.2 mph37%29.98 "Hg4 mi
11:23 PM
Sat, May 28
70 °FClear.No wind27%29.98 "Hg4 mi
10:24 PM72 °FClear.5 mph25%29.98 "Hg4 mi
9:23 PM77 °FPassing clouds.7 mph19%29.95 "Hg5 mi
8:21 PM81 °FPassing clouds.14 mph14%29.92 "Hg5 mi
7:23 PM84 °FPassing clouds.18 mph12%29.92 "HgN/A
6:22 PM86 °FPassing clouds.26 mph10%29.89 "HgN/A
5:22 PM90 °FPassing clouds.20 mph10%29.89 "HgN/A
4:22 PM90 °FPassing clouds.20 mph11%29.89 "HgN/A
3:30 PM90 °FPassing clouds.18 mph10%29.92 "HgN/A
2:30 PM90 °FPassing clouds.24 mph9%29.92 "HgN/A
1:23 PM88 °FPassing clouds.22 mph11%29.92 "HgN/A
12:23 PM84 °FPassing clouds.5 mph15%29.98 "HgN/A
11:30 AM79 °FSunny.5 mph18%29.98 "Hg10 mi
10:30 AM75 °FSunny.2 mph22%30.01 "Hg10 mi
9:30 AM70 °FPassing clouds.2 mph29%30.04 "HgN/A
8:30 AM63 °FScattered clouds.2 mph37%30.04 "HgN/A
7:30 AM55 °FPassing clouds.No wind59%30.01 "HgN/A
6:30 AM50 °FPassing clouds.No wind67%30.01 "HgN/A
5:22 AM52 °FClear.2 mph62%29.98 "Hg10 mi
4:22 AM52 °FClear.2 mph62%29.98 "Hg10 mi
Weather by CustomWeather, © 2016

See weather overviewHow to use our weather pages